紫金山-アトラス彗星

C/2023 A3 ( Tsuchinshan-ATLAS )

English version
Home page
Updated on August 27, 2023

---------------------------------------------------------------------

・ プロフィール

発見日 2023年1月9日、2月22日
発見光度 18.7等、18.0等
発見者 Purple Mountain Observatory's XuYi Station, Asteroid Terrestrial-Impact Last Alert System (ATLAS) search program

・ 写真集

・ 軌道要素

Epoch 2023 Feb. 25.0 TT = JDT 2460000.5
T 2024 Sept. 27.64819 TT                                Rudenko
q   0.3911855            (2000.0)            P               Q
z  -0.0004850      Peri.  308.48975     +0.36139995     +0.90086557
 +/-0.0000227      Node    21.55720     +0.91856006     -0.29969625
e   1.0001897      Incl.  139.11855     -0.16011716     +0.31404360
>From 1730 observations 2022 Apr. 9-2023 July 6, mean residual 0".3.

・ 星図

・ 光度変化

        m1 = -17.0 + 5 logΔ + 35   log r  [    ,-575]  (              〜2023年 3月 2日)
        m1 =   4.5 + 5 logΔ + 10.0 log r  [-575,    ]  (2023年 3月 2日〜              )

---------------------------------------------------------------------

軌道要素はM.P.E.C. 2023-N16に掲載されたものです。
星図はステラナビゲータ Ver.11 (アストロアーツ) で作成したものです。
光度グラフはComet for Windowsで作成したものです。

---------------------------------------------------------------------

Copyright(C) Seiichi Yoshida (comet@aerith.net). All rights reserved.